Showing default

GEESAT 6-06, 65718

Orbit data source: Space-Track

GEESAT 6-06, 65718 is a payload satellite owned by GeeSpace (CN) in LEO that was launched on Wed, 24 Sep 2025 UTC via a JIELONG-3 launch vehicle from the Yellow Sea Launch Area, China (YSLA). Payload-class satellites include a variety of spacecraft equipped with specific instruments for various scientific and technological missions. These include communications satellites like Starlink; space stations such as the ISS; scientific satellites like the Hubble; Earth observation satellites from companies like Planet Labs, Umbra, and HawkEye 360; GPS; miniature CubeSats for education and research; and military/defense satellites.

Loading next visibility...
Identifier
65718, 2025-214G
Orbit
LEO
Country
Flag of CNCN / PRC
Related business
Manufacturer
GWCG
Mission
Operational Commercial Navigation
Bus & Motor
GPS100, Unknown motor
Mass
130 kg wet, 130 kg dry
Launch date (UTC)
2025-09-24 (9 months ago)
Launch vehicle
JIELONG-3
Launch site
Yellow Sea Launch Area, China (YSLA)
Object type
Payload
Rocket body
Debris
Shape & HBR
Box + 2 Pan, 1.1 m
Radar Cross Section
0.833 m², Large (>1 m²)

Expand to show TLE details & history
Last TLE update: 11 hours ago

TLE from 11 hours ago
0 GEESAT 6-06
1 65718U 25214G   26171.39181417  .00001041  00000-0  15375-3 0  9992
2 65718  49.9919 291.2825 0010238 249.2693 110.7148 14.83139851 40018
Epoch: 2026-06-20T09:24Z
TLE epoch observation values (Epoch: 2026-06-20T09:24:12.744Z)
Latitude
-0.00001°
Longitude
-118.37771°
Altitude
622.514 km
Speed
7.547 km/s
True Right ascension
19h 25m 07s
True Declination
0° 00' 00"
Sunlit
Object was in full shadow at epoch
Visualization orbit readout
Latitude
Unknown
Longitude
Unknown
Altitude
Unknown
Speed
Unknown
Apparent Right ascension
Unknown
Apparent Declination
Unknown
Sunlit
N/A
Visualization observer readout
Local Sidereal Time
07:12:43
Azimuth
Unknown
Elevation
Unknown
Doppler factor
Unknown
Orbital elements
Apogee altitude
627.355 km
Perigee altitude
613.025 km
Semi-major axis
6,998.327 km
Eccentricity
0.00102
Inclination
49.9919°
RAAN
291.2825°
Arg. of periapsis
249.2693°
True anomaly
110.82448°
Mean anomaly
110.7148°
Eccentric anomaly
110.76965°
Mean motion
3.70725 °/min
Orbital period
97.11 mins
BSTAR
0.00015375
Loading maneuver chart data...
Computing Atmospheric mass density...
Loading historical data...
Loading historical data...
Loading historical data...
Loading historical data...
Loading historical data...
Loading historical data...
Loading historical data...

Documentation

Showing up to 5 results
|